CW5841 Leek UK current weather conditions

sailwx.info

Wind from 128 at 5 knots gusting 13

Air temperature 3.9° C
Dewpoint 1.4° C

Last reported at 2020-Feb-24 04:01 UTC.
Time now 2020-Feb-24 05:10 UTC

Location: N 53°04' W 002°03'.
View on Google Maps.

See reports from other nearby stations

  
Tides and Currents Weather Stations Pressure Air Temp Water Temp Dewpoint Dewpoint Depression Visibility Wind Speed Wind Dir Waves Ship Positions
date/time (UTC)wind fromknots sea level pressurealtimeterstation pressurevisibilityair tempwater tempwave heightnotes
2020-Feb-24 04:01 128 5 gusting 13 3.9
2020-Feb-24 03:36 137 3 gusting 6 3.3
2020-Feb-24 03:31 131 2 gusting 7 3.3
2020-Feb-24 03:06 137 2 gusting 6 2.8
2020-Feb-24 03:01 156 0 gusting 7 3.3
2020-Feb-24 02:31 138 2 gusting 8 3.3
2020-Feb-24 02:06 154 3.3
2020-Feb-24 02:01 157 3.3
2020-Feb-24 01:36 175 3.3
2020-Feb-24 01:31 140 3.3
2020-Feb-24 01:01 192 3.9
2020-Feb-24 00:36 168 3.9
2020-Feb-24 00:06 151 0 gusting 2 3.9
2020-Feb-24 00:01 162 3.9
2020-Feb-23 23:36 155 3.3
2020-Feb-23 23:06 243 3.3
2020-Feb-23 23:01 196 3.3
2020-Feb-23 22:36 256 3.3
2020-Feb-23 22:06 250 2.8
2020-Feb-23 22:01 249 2.2
2020-Feb-23 21:31 281 2.8
2020-Feb-23 21:06 143 2.2
2020-Feb-23 21:01 145 2.8
2020-Feb-23 20:36 142 3.3
2020-Feb-23 20:31 043 3.3
2020-Feb-23 20:06 269 3.9
2020-Feb-23 19:36 273 3.9
2020-Feb-23 19:31 201 3.9
2020-Feb-23 19:06 212 0 gusting 1 4.4
2020-Feb-23 18:36 245 4.4
2020-Feb-23 18:31 225 4.4
2020-Feb-23 18:01 247 5.0
2020-Feb-23 17:36 136 2 gusting 7 5.0
2020-Feb-23 17:31 089 5.0
2020-Feb-23 17:01 175 1 gusting 8 5.6
2020-Feb-23 16:36 267 0 gusting 5 6.1
2020-Feb-23 16:31 132 1 gusting 6 6.1
2020-Feb-23 16:06 213 2 gusting 6 6.1
2020-Feb-23 16:01 244 0 gusting 6 6.1
2020-Feb-23 15:36 292 2 gusting 7 6.7
2020-Feb-23 15:31 230 1 gusting 15 6.7
2020-Feb-23 15:06 199 6 gusting 13 6.7
2020-Feb-23 15:01 280 2 gusting 10 7.2
2020-Feb-23 14:06 299 4 gusting 8 6.7
2020-Feb-23 14:01 062 2 gusting 15 6.1
2020-Feb-23 13:36 001 2 gusting 12 6.7
2020-Feb-23 13:31 318 4 gusting 14 6.1
2020-Feb-23 13:06 246 2 gusting 7 6.1
2020-Feb-23 13:01 185 1 gusting 8 6.1
2020-Feb-23 12:36 217 4 gusting 12 6.1
2020-Feb-23 12:31 268 0 gusting 13 6.1
2020-Feb-23 12:06 052 3 gusting 8 6.7
2020-Feb-23 11:31 278 1 gusting 7 6.1
2020-Feb-23 11:06 351 1 gusting 6 6.1
2020-Feb-23 11:01 111 2 gusting 13 6.1
2020-Feb-23 10:36 229 0 gusting 4 7.2
2020-Feb-23 10:31 330 2 gusting 10 7.2
2020-Feb-23 10:06 230 4 gusting 7 7.2
2020-Feb-23 10:01 337 1 gusting 8 7.2
2020-Feb-23 09:36 301 3 gusting 10 7.2
2020-Feb-23 09:31 251 0 gusting 7 7.2
2020-Feb-23 09:01 279 0 gusting 5 6.7
2020-Feb-23 08:36 310 7.2
2020-Feb-23 08:31 279 0 gusting 6 7.2
2020-Feb-23 08:06 231 7.8
2020-Feb-23 08:01 240 7.8
2020-Feb-23 07:36 247 8.3
2020-Feb-23 07:31 283 8.3
2020-Feb-23 07:06 350 9.4
2020-Feb-23 07:01 171 0 gusting 20 10.0
2020-Feb-23 06:01 216 1 gusting 10 8.9
2020-Feb-23 05:36 309 7.8
2020-Feb-23 05:31 228 7.2
2020-Feb-23 05:01 126 6.1
2020-Feb-23 04:36 129 0 gusting 4 6.1
2020-Feb-23 04:06 152 6.1
2020-Feb-23 03:31 145 0 gusting 6 6.1
2020-Feb-23 03:06 154 0 gusting 4 6.1
2020-Feb-23 03:01 203 0 gusting 6 6.1
2020-Feb-23 02:36 210 0 gusting 4 6.1
2020-Feb-23 02:31 172 5.6
2020-Feb-23 02:06 193 2 gusting 7 5.6
2020-Feb-23 02:01 136 0 gusting 6 5.6
2020-Feb-23 00:31 210 5.6
2020-Feb-23 00:06 165 5.6
2020-Feb-22 23:36 257 0 gusting 4 6.1
2020-Feb-22 23:06 245 0 gusting 1 6.1
2020-Feb-22 22:36 149 6.1
2020-Feb-22 22:31 286 6.1
2020-Feb-22 22:01 217 2 gusting 6 6.7
2020-Feb-22 21:36 162 1 gusting 7 6.7
2020-Feb-22 21:31 217 0 gusting 6 6.7
2020-Feb-22 21:06 258 1 gusting 6 6.7
2020-Feb-22 21:01 238 0 gusting 6 6.7
2020-Feb-22 20:36 192 6.7
2020-Feb-22 20:06 209 6.7
2020-Feb-22 20:01 229 6.7
2020-Feb-22 19:36 257 1 gusting 6 7.2
2020-Feb-22 19:31 238 1 gusting 10 7.2
2020-Feb-22 18:31 254 0 gusting 10 6.7
2020-Feb-22 18:06 246 1 gusting 7 7.2
2020-Feb-22 17:36 229 0 gusting 2 7.2
2020-Feb-22 17:31 277 7.2
2020-Feb-22 17:06 164 1 gusting 6 7.2
2020-Feb-22 16:36 358 6.7
2020-Feb-22 16:31 071 6.7
2020-Feb-22 15:36 160 4 gusting 13 8.3
2020-Feb-22 15:31 250 6 gusting 19 8.3
2020-Feb-22 15:06 250 5 gusting 14 8.3
2020-Feb-22 15:01 199 4 gusting 19 8.3
2020-Feb-22 14:36 218 4 gusting 10 8.3
2020-Feb-22 14:31 298 4 gusting 22 8.3
2020-Feb-22 14:06 240 4 gusting 15 8.3
2020-Feb-22 13:36 286 5 gusting 12 7.8
2020-Feb-22 13:31 175 4 gusting 18 7.8
2020-Feb-22 13:01 194 6 gusting 21 8.3
2020-Feb-22 12:31 246 6 gusting 13 8.9
2020-Feb-22 12:06 237 4 gusting 11 8.9
2020-Feb-22 12:01 237 4 gusting 22 8.9
2020-Feb-22 11:36 258 2 gusting 12 8.9
2020-Feb-22 11:06 249 3 gusting 6 8.9
2020-Feb-22 11:01 240 6 gusting 19 8.9
2020-Feb-22 10:36 244 4 gusting 11 8.3
2020-Feb-22 10:31 242 4 gusting 19 8.3
2020-Feb-22 10:06 193 3 gusting 8 8.9
2020-Feb-22 10:01 206 3 gusting 17 8.9
2020-Feb-22 09:36 227 6 gusting 17 8.3
2020-Feb-22 09:06 223 6 gusting 13 8.3
2020-Feb-22 09:01 185 4 gusting 18 8.3
2020-Feb-22 08:36 239 6 gusting 19 8.3
2020-Feb-22 08:01 262 2 gusting 11 8.3
2020-Feb-22 07:36 236 0 gusting 6 8.9
2020-Feb-22 07:31 246 2 gusting 13 8.9
2020-Feb-22 07:06 276 2 gusting 13 8.9
2020-Feb-22 06:36 228 5 gusting 12 8.9
2020-Feb-22 06:01 212 5 gusting 17 9.4
2020-Feb-22 05:36 262 2 gusting 12 10.6
2020-Feb-22 05:31 263 4 gusting 18 10.6
2020-Feb-22 05:01 213 5 gusting 13 9.4